Regional Weather Roundup
Issued by NWS

Home | Current Version | Previous Version | Graphics & Text | Print | Product List | Glossary On
Versions: 1 2 3 4 5 6 7 8 9 10 11 12 13 14 15 16 17 18 19 20 21 22 23 24 25 26 27 28 29 30 31 32 33 34 35 36 37 38 39 40 41 42 43 44 45 46 47 48 49 50
000
ASUS43 KDTX 080810
RWRMI
MICHIGAN HOURLY REGIONAL WEATHER ROUNDUP
NATIONAL WEATHER SERVICE DETROIT/PONTIAC MI
300 AM EST THU DEC 08 2016

NOTE: "FAIR" INDICATES FEW OR NO CLOUDS BELOW 12,000 FEET WITH NO
SIGNIFICANT WEATHER AND/OR OBSTRUCTION TO VISIBILITY.

MIZ047>049-052>055-059>063-066>070-074>076-081>083-080900-
SOUTHEAST LOWER MICHIGAN

CITY           SKY/WX    TMP DP  RH WIND       PRES   REMARKS
ADRIAN         CLOUDY    28  20  71 W14G20    30.05S WCI  17
ALMA           CLOUDY    27  19  71 W18G25    29.99S WCI  14
ANN ARBOR      CLOUDY    28  19  69 SW21      30.01F WCI  15
BAD AXE        CLOUDY    28  19  68 W16G23    29.94R WCI  17
CARO           CLOUDY    28  21  74 W13G21    29.95S WCI  18
DETROIT CITY   CLOUDY    30  19  63 W13G20    30.01S WCI  20
DETROIT        CLOUDY    30  18  60 W18G25    30.03S WCI  18
FLINT          CLOUDY    28  20  71 W18G30    29.99R WCI  15
GROSSE ILE     CLOUDY    30  20  67 W13       30.02S WCI  20
HILLSDALE      CLOUDY    27  19  74 W16G23    30.03R WCI  14
HOWELL         CLOUDY    29  21  70 W13G21    29.99S WCI  19

CITY           SKY/WX    TMP DP  RH WIND       PRES   REMARKS
JACKSON        CLOUDY    27  18  69 W13       30.02S WCI  16
LAMBERTVILLE   CLOUDY    30  20  68 W10G17    30.07S WCI  21
LANSING        CLOUDY    27  18  69 W22G30    30.02R WCI  13
LAPEER         NOT AVBL
MASON          CLOUDY    28  21  78 W16G23    30.01S WCI  15
MONROE         CLOUDY    29  21  71 W12       30.04S WCI  20
MT. CLEMENS    CLOUDY    32  20  61 W14       29.97S WCI  22
PONTIAC        CLOUDY    29  18  63 W17G26    29.97R WCI  17
PORT HOPE        N/A     30  19  63 W8G18     29.91R WCI  22
PORT HURON     CLOUDY    32  21  64 SW7       29.97S WCI  26
TRI CITIES     CLOUDY    28  20  71 W22G28    29.98R WCI  14
MIDLAND        CLOUDY    28  17  64 W10G17    29.97R WCI  19
TROY           CLOUDY    32  18  56 SW7G29    30.01S WCI  25
SAGINAW HB     CLOUDY    30  19  64 W17       29.97R WCI  18
$$
MIZ043>046-050>051-056>058-064>065-071>073-077>080-080900-
SOUTHWEST LOWER MICHIGAN

CITY           SKY/WX    TMP DP  RH WIND       PRES   REMARKS
BATTLE CREEK   CLOUDY    26  20  77 W20       30.05S WCI  12
BENTON HARBOR  CLOUDY    28  18  66 W23G29    30.11S WCI  14
BIG RAPIDS     CLOUDY    26  17  68 W12G25    29.97R WCI  16
COLDWATER      CLOUDY    26  19  75 W17G23    30.07R WCI  13
FREMONT        CLOUDY    25  14  63 W10G21    30.01S WCI  15
HOLLAND        CLOUDY    27  19  72 W21       30.06S WCI  13
GRAND RAPIDS   CLOUDY    27  19  72 W18G32    30.03S WCI  14
IONIA          CLOUDY    26  19  74 W24G37    30.00S WCI  11
KALAMAZOO      CLOUDY    27  18  69 W17       30.07R WCI  14
LUDINGTON      CLOUDY    26  18  71 W14G22    30.00R WCI  14
MARSHALL       CLOUDY    27  20  76 W10       30.04S WCI  17
MOUNT PLEASANT CLOUDY    26  17  68 W17       29.97S WCI  13
MUSKEGON       MIX PCPN  26  18  71 W12G22    30.05S WCI  16
SOUTH HAVEN    CLOUDY    28  20  73 W12G22    30.09S WCI  17
$$
MIZ016>042-080900-
NORTHERN LOWER MICHIGAN

CITY           SKY/WX    TMP DP  RH WIND       PRES   REMARKS
ALPENA         CLOUDY    29  18  63 SW10G20   29.86S WCI  20
BEAVER ISLAND  LGT SNOW  27  23  84 W17G30    29.85S WCI  14
BELLAIRE       FLURRIES  28  19  71 SW13G20   29.90S WCI  17
CADILLAC       FLURRIES  23  15  71 W16G23    29.90S WCI  10
CHARLEVOIX     CLOUDY    28  21  74 W23G29    29.89S WCI  14
FRANKFORT      FLURRIES  26  19  75 W15G23    29.95S WCI  14
GAYLORD        LGT SNOW  25  17  72 W16G31    29.83S WCI  12
GRAYLING       CLOUDY    25  17  72 W13G23    29.89R WCI  14
HARBOR SPRINGS SNOW      28  27  94 W14G26    29.84S VSB 1/2 WCI  17
HOUGHTON LAKE  FLURRIES  24  16  71 W17G30    29.91R WCI  11
MANISTEE       FLURRIES  26  18  71 W18G28    29.97S WCI  13
OSCODA         CLOUDY    29  17  59 MISG      29.90S
PELLSTON       HVY SNOW  26  23  88 W10G21    29.84R VSB 1/4 WCI  16
ROGERS CITY    CLOUDY    29  21  72 W9G18     29.85R WCI  20
TRAVERSE CITY  CLOUDY    27  17  66 W14G22    29.92S WCI  16
$$
MIZ007>008-015-080900-
EASTERN UPPER MICHIGAN

CITY           SKY/WX    TMP DP  RH WIND       PRES   REMARKS
MACKINAC ISLAN CLOUDY    28  21  74 W23G32    29.81R WCI  14
NEWBERRY       CLOUDY    21  15  79 SW15G24   29.78S WCI   8
MUNISING         N/A     23  14  68 SW8       29.82S WCI  14
$$
MIZ004>006-011>014-085-080900-
CENTRAL UPPER MICHIGAN

CITY           SKY/WX    TMP DP  RH WIND       PRES   REMARKS
MANISTIQUE     CLOUDY    21  13  70 W9        29.84S WCI  11
SAWYER-GWINN   CLOUDY    19  13  76 W13       29.82R WCI   7
$$
MIZ001>003-009>011-084-080900-
WESTERN UPPER MICHIGAN

CITY           SKY/WX    TMP DP  RH WIND       PRES   REMARKS
$$

ABBREVIATIONS USED IN REMARKS
   TC - TEMPERATURE IN CELSIUS
  WCI - WIND CHILL INDEX
   HX - HEAT INDEX
  VSB - VISIBILITY




USA.gov is the U.S. government's official web portal to all federal, state and local government web resources and services.